CAMP EDWARDS RAWS MA US current weather conditions

sailwx.info

Wind from 170 at 6 knots gusting 19

Air temperature 11.7° C
Dewpoint 11.7° C

Last reported at 2019-Dec-09 22:07 UTC.
Time now 2019-Dec-09 23:47 UTC

Location: N 41°42' W 070°34'.
View on Google Maps.

See reports from other nearby stations

  
Tides and Currents Weather Stations Pressure Air Temp Water Temp Dewpoint Dewpoint Depression Visibility Wind Speed Wind Dir Waves Ship Positions
date/time (UTC)wind fromknots sea level pressurealtimeterstation pressurevisibilityair tempwater tempwave heightnotes
2019-Dec-09 22:07 170 6 gusting 19 11.7
2019-Dec-09 21:07 165 7 gusting 19 11.7
2019-Dec-09 20:07 165 6 gusting 16 11.1
2019-Dec-09 19:07 169 6 gusting 18 11.7
2019-Dec-09 18:07 168 6 gusting 20 11.1
2019-Dec-09 17:07 161 7 gusting 18 11.1
2019-Dec-09 16:07 159 6 gusting 17 10.0
2019-Dec-09 15:07 154 6 gusting 12 10.0
2019-Dec-09 14:07 157 4 gusting 11 9.4
2019-Dec-09 13:07 165 5 gusting 13 8.9
2019-Dec-09 12:07 160 4 gusting 9 8.3
2019-Dec-09 11:07 170 3 gusting 8 7.8
2019-Dec-09 10:07 152 2 gusting 8 7.2
2019-Dec-09 09:07 172 2 gusting 10 7.8
2019-Dec-09 08:07 182 2 gusting 10 6.1
2019-Dec-09 07:07 173 3 gusting 9 6.1
2019-Dec-09 06:07 195 4 gusting 13 6.7
2019-Dec-09 05:07 186 4 gusting 12 5.6
2019-Dec-09 04:07 183 4 gusting 11 5.0
2019-Dec-09 03:07 185 3 gusting 9 4.4
2019-Dec-09 02:07 178 3 gusting 11 3.3
2019-Dec-09 01:07 178 3 gusting 12 2.8
2019-Dec-09 00:07 166 3 gusting 9 1.7
2019-Dec-08 23:07 165 2 gusting 6 1.1
2019-Dec-08 22:07 170 2 gusting 8 1.1
2019-Dec-08 21:07 191 2 gusting 8 1.1
2019-Dec-08 20:07 201 3 gusting 11 1.7
2019-Dec-08 19:07 212 4 gusting 12 2.2
2019-Dec-08 18:07 244 3 gusting 9 2.2
2019-Dec-08 17:07 256 2 gusting 8 1.7
2019-Dec-08 16:07 224 2 gusting 7 1.1
2019-Dec-08 15:07 241 2 gusting 5 -0.0
2019-Dec-08 14:07 294 1 gusting 3 -1.1
2019-Dec-08 13:07 305 1 gusting 5 -4.4
2019-Dec-08 12:07 307 1 gusting 5 -7.2
2019-Dec-08 11:07 308 1 gusting 4 -7.2
2019-Dec-08 10:07 319 1 gusting 6 -7.2
2019-Dec-08 09:07 296 1 gusting 5 -6.7
2019-Dec-08 08:07 294 2 gusting 6 -6.7
2019-Dec-08 07:07 307 1 gusting 5 -6.1
2019-Dec-08 06:07 302 0 gusting 6 -5.6
2019-Dec-08 05:07 304 2 gusting 6 -5.0
2019-Dec-08 04:07 301 2 gusting 6 -4.4
2019-Dec-08 03:07 315 2 gusting 7 -3.9
2019-Dec-08 02:07 315 2 gusting 7 -3.9
2019-Dec-08 01:07 322 1 gusting 7 -3.3
2019-Dec-08 00:07 315 1 gusting 5 -2.8
2019-Dec-07 23:07 314 2 gusting 7 -2.2